Regional Weather Roundup
Issued by NWS

Home | Current Version | Previous Version | Graphics & Text | Print | Product List | Glossary On
Versions: 1 2 3 4 5 6 7 8 9 10 11 12 13 14 15 16 17 18 19 20 21 22 23 24 25 26 27 28 29 30 31 32 33 34 35 36 37 38 39 40 41 42 43 44 45 46 47 48 49 50
000
ASUS45 KTFX 291119
RWRMT
MONTANA HOURLY WEATHER ROUNDUP
NATIONAL WEATHER SERVICE GREAT FALLS MT
519 AM MDT FRI AUG 29 2014

NOTE: "FAIR" INDICATES FEW OR NO CLOUDS BELOW 12000 FEET WITH NO
SIGNIFICANT WEATHER AND/OR OBSTRUCTIONS TO VISIBILITY.

* THESE STATIONS ARE NOT UNDER NWS QUALITY CONTROL. THEY DO NOT
   REPORT WEATHER SUCH AS PRECIPITATION OR FOG.

MTZ001>007-043-291200-
WEST OF THE DIVIDE
CITY           SKY/WX    TMP DP  RH WIND       PRES   REMARKS
KALISPELL      CLEAR     48  48 100 W6        30.02R
MISSOULA       PTCLDY    54  43  67 CALM      30.05R
BUTTE          CLEAR     46  39  77 CALM      30.15R
MULLAN PASS    CLEAR     54  37  53 SW8       30.13F
* LINCOLN      N/A       45  44  96 S1         N/A
* LOOKOUT PASS N/A       50  41  71 S2         N/A
* POLSON       N/A       53  49  86 N/A        N/A
* RONAN APT    PTCLDY    52  43  72 N/A        N/A
* SEELEY LAKE  N/A       40  37  89 N/A        N/A
* THOMP F APT  CLEAR     46  41  83 N/A        N/A
$$

MTZ008-052>055-291200-
SOUTHWEST MONTANA
CITY           SKY/WX    TMP DP  RH WIND       PRES   REMARKS
BOZEMAN        PTCLDY    55  48  77 W7        30.10R
DILLON         CLEAR     52  43  72 E7        30.11R
W YELLOWSTONE  PTCLDY    41  41 100 CALM      30.22S
* THREE FORKS  PTCLDY    55  36  49 N/A        N/A
* BOULDER HILL N/A       47  43  86 SW2        N/A
* MONIDA PASS  N/A       46  44  93 W2         N/A
* RAYNOLDS PAS N/A       47  30  52 SE3        N/A
* WHITEHALL    N/A       55  45  69 N6G18      N/A
* WISE RIVER   N/A       47  38  71 S2         N/A
$$

MTZ009>010-012-014-046-048-049-054-291200-
EAST SLOPES AND CENTRAL MONTANA
CITY           SKY/WX    TMP DP  RH WIND       PRES   REMARKS
GREAT FALLS    CLEAR     48  46  93 N3        30.08S
HELENA         CLEAR     52  48  86 CALM      30.10S
MALMSTROM AFB  CLEAR     52  48  86 NW5       30.10S
* CONRAD       PTCLDY    45  45 100 N/A        N/A
* EAST GLACIER N/A       44  44 100 N/A        N/A
* MONARCH      N/A       49  44  83 S10        N/A
* PENDROY      N/A       45  45 100 SE5        N/A
* ROGERS PASS  N/A       46  44  93 NW5        N/A
* SAINT MARY   N/A       43  43 100 S3         N/A
* SWEET GRASS  N/A       49  49 100 SE3G8      N/A
* WHITE SULPH  N/A       50  49  96 E3         N/A
$$

MTZ011-013-016-021-035-040-045-047-050-051-291200-
NORTH CENTRAL MONTANA
CITY           SKY/WX    TMP DP  RH WIND       PRES   REMARKS
HAVRE          CLOUDY    54  52  93 W6        30.07R
LEWISTOWN      PTCLDY    50  46  86 S6        30.10S
* CHINOOK      CLEAR     57  54  90 NW5       30.06R
* FORT BENTON  CLEAR     55  50  83 CALM      30.10R
* CHESTER      N/A       50  46  86 E1         N/A
* DENTON       N/A       52  49  90 SW4        N/A
* GEYSER       N/A       50  48  93 E2         N/A
* JUDITH GAP   N/A       49  49 100 N12        N/A
* LOMA         N/A       56  50  80 NW4        N/A
$$

MTZ017>020-022>027-061-062-291200-
NORTHEAST MONTANA
CITY           SKY/WX    TMP DP  RH WIND       PRES   REMARKS
GLASGOW        CLOUDY    55  54  96 NW9       30.00R
GLENDIVE       CLOUDY    59  55  87 NW13      29.96R
JORDAN         CLOUDY    57  55  93 NW15      30.01R
SIDNEY         MOCLDY    61  57  87 W6        29.94R
WOLF POINT     CLOUDY    61  55  81 NW7       29.95S
* BEAVER HILL  N/A       60  52  75 NW11       N/A
* CIRCLE       N/A       59  58  97 NW9        N/A
* LINDSAY DVD  N/A       57  56  96 NW14G19    N/A
* NAVAJO       N/A       56  53  90 VRB12G17    N/A
$$

MTZ028>042-056>058-291200-
SOUTHCENTRAL AND SOUTHEAST MONTANA
CITY           SKY/WX    TMP DP  RH WIND       PRES   REMARKS
BAKER          MOCLDY    63  52  68 N10       29.94R
BILLINGS       CLOUDY    57  52  83 N10       30.09S
LIVINGSTON     PTCLDY    52  46  80 S5        30.12R
MILES CITY     CLOUDY    64  52  65 NE6       29.98S
* LAUREL APT   CLOUDY    59  50  72 N5         N/A
* ROUNDUP APT  MOCLDY    55  46  72 N/A        N/A
* ALZADA       N/A       60  52  75 W4         N/A
* HYSHAM       N/A       58  53  84 NW6        N/A
* LAME DEER    N/A      N/A N/A N/A N/A        N/A
* REED POINT   N/A       58  50  75 N/A        N/A
* ROSCOE HILL  N/A       53  46  77 S2         N/A
$$

REGIONAL REPORTS...DAKOTAS
CITY           SKY/WX    TMP DP  RH WIND       PRES   REMARKS
WILLISTON      MOCLDY    61  57  87 N9        29.87R
DICKINSON      PTCLDY    63  57  81 N15       29.85R
BEACH          N/A       57  57 100 NW10      29.95R
CROSBY         CLEAR     57  57 100 NW10      29.90R
TIOGA          FAIR      57  57 100 N9        29.90R
WATFORD CITY   FAIR      59  54  84 N9        29.84F
BISMARCK       FOG       64  63  97 S7        29.79F
GRAND FORKS    CLOUDY    66  63  90 SW5       29.77S
FARGO          CLOUDY    66  64  93 S3        29.77S
BUFFALO SD     PTCLDY    63  52  68 W18       29.84R
RAPID CITY     CLEAR     61  50  67 W7        29.89S
$$

REGIONAL REPORTS...WYOMING/IDAHO/WASHINGTON
CITY           SKY/WX    TMP DP  RH WIND       PRES   REMARKS
GILLETTE       LGT RAIN  61  52  72 NW16G26   30.03R
SHERIDAN       CLOUDY    61  54  78 CALM      30.05S
CODY           CLOUDY    61  46  58 CALM      30.11F
YELLOWSTONE LA MOCLDY    45  43  93 CALM      30.30S
SALMON         CLEAR     50  45  83 CALM      30.07R
MULLAN PASS    CLEAR     54  37  53 SW8       30.13S
SAND POINT     PTCLDY    50  50 100 CALM      29.96F
SPOKANE        MOCLDY    57  41  55 S7        29.94F
$$

REGIONAL REPORTS...ALBERTA
CITY           SKY/WX    TMP DP  RH WIND       PRES   REMARKS
CALGARY        FAIR      43  41  93 S6        30.01F
LETHBRIDGE     MOCLDY    46  46 100 S7        30.06R
MEDICINE HAT   FOG       48  48 100 S5        30.07S VSB 2
EDMONTON       FAIR      39  37  93 S7        29.95F WCI  34
WATERTON GATE  N/A       41  41 100 SW2        N/A
CARDSTON       N/A       43  43 100 S2         N/A
MILK RIVER     N/A       50  48  93 SE7        N/A
$$

REGIONAL REPORTS...SASKATCHEWAN
CITY           SKY/WX    TMP DP  RH WIND       PRES   REMARKS
SWIFT CURRENT  PTCLDY    50  50 100 W8        30.02R
MOOSE JAW      PTCLDY    54  54 100 NW7       29.98R
REGINA         CLOUDY    55  54  96 N8        29.96R
VAL MARIE      N/A       54  52  93 N7         N/A
ASSINIBOIA     N/A       55  52  90 NW7        N/A
CORONACH       N/A       55  54  96 NW7        N/A

$$




USA.gov is the U.S. government's official web portal to all federal, state and local government web resources and services.